Время (UTC), дата Ветер
(°,м/с) 
Видим.   Явления Облачность Т
(°С)
Тd
(°С)
f(%) Тe
(°С)
Pmin
(гПа)
dP
(гПа)
Po
(мм)
O2
(г/м3)
Тmin Tmax R s Состояние
почвы
00 01.04.10 300 (СЗ) >10 км  {ливн. осадки}  10/6 480 м кучево-дожд., средняя 
[Cb calv|Ac und]
+6.3 +4.9 91 +7  1016.9  -0.9  722  284           
03 01.04.10 310 (СЗ) 10 км    10/6 360 м кучево-дожд., средняя 
[Cb calv|Ac und]
+7 +5.6 91 +8  1016.8  722  283           
06 01.04.10 180 (Ю) 4000 м  дымка  10/8 270 м средняя 
[St|Ac und]
+8 +6.2 88 +9  1016.5  -0.1  722  282  +5.7    0.4     
09 01.04.10 090 (В) >10 км    8/8 600 м кучево-дожд. 
[Cb calv]
+10.8 +4.6 66 +11  1015.4  -0.4  722  279           
12 01.04.10 090 (В) >10 км    8/8 600 м 
[Cu hum]
+14.5 +5.5 55 +15  1014.6  -0.2  722  275           
15 01.04.10 060 (СВ) >10 км    8/0 средняя, верхняя 
[Ac As|Ci sp]
+12.4 +5.6 63 +12  1015.1  0.2  722  277           
18 01.04.10 070 (В) >10 км    8/0 средняя 
[Ac trans]
+9.1 +4.8 74 +9  1016.9  722  281    +14.6       
21 01.04.10 170 (Ю) >10 км  слаб. ливневой дождь  10/6 210 м кучево-дожд., средняя 
[Cb cap|Ac und]
+8.7 +6.8 88 +8  1017.1  0.2  723  281           
00 02.04.10 000 (С) 79  >10 км  {ливн. осадки}  3/3 600 м кучево-дожд., средняя 
[Cb calv|Ac trans]
+5.6   1017  -0.3  722             
03 02.04.10 020 (С) >10 км    8/4 600 м кучево-дожд., средняя 
[Cb calv|Ac trans]
+9.7 +5.3 74 +11  1016.9  0.2  722  280           
06 02.04.10 140 (ЮВ) >10 км    8/3 600 м кучево-дожд., средняя 
[Cb calv|Ac trans]
+10.8 +0.8 50 +10  1016.7  0.1  723  280  +7.7       
09 02.04.10 160 (Ю) >10 км    9/3 600 м кучево-дожд., средняя 
[Cb calv|Ac trans]
+15.1 +6.4 56 +15  1016.4  0.5  723  275           
12 02.04.10 330 (СЗ) >10 км  гроза без осадков{ливн. осадки}  9/6 900 м кучево-дожд., средняя 
[Cb calv|Ac trans]
+11.7 +8.5 81 +11  1017.5  0.4  723  278           
15 02.04.10 140 (ЮВ) >10 км  {гроза, ливн. осадки}  8/1 600 м кучево-дожд., средняя, верхняя 
[Cb calv|Ac trans|Ci fib]
+10.7 +7.8 82 +11  1017.5  -0.1  723  279           
18 02.04.10 150 (ЮВ) >10 км  {гроза, ливн. осадки}  4/1 600 м кучево-дожд., средняя 
[Cb calv|Ac trans]
+8.4 +5.3 81 +8  1018.4  0.3  723  282    +16     
21 02.04.10 140 (ЮВ) >10 км  в посл. час ливневой дождь  4/3 600 м кучево-дожд., средняя 
[Cb calv|Ac trans]
+6.1 +4 86 +5  1018.5  -0.3  723  284           
00 03.04.10 140 (ЮВ) >10 км    3/0 средняя 
[Ac trans]
+6.6 +3 78 +6  1017  -1.4  722  284           
03 03.04.10 120 (ЮВ) >10 км    8/0 средняя, верхняя 
[Ac trans|Ci fib]
+5.5 +3.8 89 +4  1016.6  -0.5  722  284           
06 03.04.10 100 (В) >10 км    9/1 600 м кучево-дожд., средняя 
[Cb calv|Ac trans]
+9.1 +5.8 80 +9  1015.6  -0.3  722  280  +5.4    0.0     
09 03.04.10 090 (В) >10 км    9/6 660 м кучево-дожд., средняя 
[Cb calv|Ac trans]
+12.8 +8.1 73 +12  1014.9  722  276           
12 03.04.10 100 (В) >10 км    8/5 600 м кучево-дожд., средняя 
[Cb calv|Ac trans]
+13.8 +6.1 60 +13  1015.1  0.4  722  276           
15 03.04.10 080 (В) >10 км    10/3 600 м средняя 
[Sc diur, vesp|Ac und]
+11.8 +4.3 60 +11  1016.6  723  278           
18 03.04.10 100 (В) >10 км    10/3 1000 м кучево-дожд., средняя 
[Cb calv|Ac und]
+9.3 +2.1 61 +8  1017.9  0.8  723  281    +15.1       
21 03.04.10 170 (Ю) >10 км    10/3 1000 м кучево-дожд., средняя 
[Cb calv|Ac und]
+7.5 +4.5 81 +7  1018.6  0.3  723  283           
00 04.04.10 140 (ЮВ) >10 км    10/3 1000 м кучево-дожд., средняя 
[Cb calv|Ac und]
+6.6 +4.8 88 +6  1019.2  0.4  724  284           
03 04.04.10 120 (ЮВ) >10 км    10/3 1000 м кучево-дожд., средняя 
[Cb calv|Ac und]
+6.8 +5 88 +6  1020.3  1.2  725  284           
06 04.04.10 160 (Ю) >10 км    10/0 кучево-дожд., средняя 
[Cb calv|Ac und]
+7.9 +2.1 67 +6  1021.9  1.6  726  284  +6.6         
09 04.04.10 160 (Ю) >10 км    10/3 600 м кучево-дожд., средняя 
[Cb calv|Ac und]
+9 +1.3 59 +8  1023.3  1.6  727  283           
12 04.04.10 130 (ЮВ) >10 км    8/3 600 м средняя 
[Sc diur, vesp|Ac trans]
+11 +0.2 47 +11  1023.9  0.8  728  282           
15 04.04.10 210 (ЮЗ) >10 км    8/4 1000 м средняя 
[Sc diur, vesp|Ac trans]
+9.6 +3.6 66 +9  1025.2  1.1  728  283           
18 04.04.10 220 (ЮЗ) >10 км    4/0 средняя 
[Ac trans]
+5.6 +2.4 80 +5  1026.9  0.8  729  287    +11.7       
21 04.04.10 240 (ЮЗ) >10 км    3/0 средняя 
[Ac trans]
+4.3 +0.6 77 +2  1027.7  0.5  729  289           
00 05.04.10 280 (З) >10 км    3/0 средняя 
[Ac trans]
+6 +0 65 +5  1027.5  0.1  729  288           
03 05.04.10 280 (З) >10 км    3/0 средняя 
[Ac trans]
+7 +4.3 83 +6  1028.6  1.3  730  286           
06 05.04.10 310 (СЗ) >10 км    3/0 верхняя 
[Ci fib]
+10.2 +4.3 67 +9  1028  730  283  +4.1         
09 05.04.10 350 (С) >10 км    4/4 600 м 
[Cu hum]
+12.8 +1.7 47 +12  1037.3  -0.2  730  281           
12 05.04.10 350 (С) >10 км    3/3 600 м 
[Cu hum]
+13.4 +0 40 +13  1026.7  -0.5  730  280           
15 05.04.10 360 (С) >10 км    3/3 600 м 
[Sc]
+12.1 +1.3 48 +11  1036.2  -0.6  729  281           
18 05.04.10 090 (В) >10 км    3/0 средняя 
[Ac trans]
+7.3 -2.5 50 +7  1027.3  0.1  730  287    +13.8       
21 05.04.10 190 (Ю) >10 км    3/0 средняя 
[Ac trans]
+5.4 -3.8 51 +4  1026.7  -1  729  288           
00 06.04.10 170 (Ю) >10 км    ясно 
+5.7 -4.5 48 +5  1025.7  -0.9  728  288           
03 06.04.10 150 (ЮВ) >10 км    3/0 верхняя 
[Ci sp]
+4 -4 56 +5  1025.1  -0.9  727  289           
06 06.04.10 090 (В) >10 км    ясно 
+10.2 -3.3 39 +10  1023.6  -0.3  727  283  +3.9         
09 06.04.10 090 (В) >10 км    ясно 
+13.2 -1.6 36 +12  1020.4  -3.2  725  279           
12 06.04.10 080 (В) >10 км    8/0 верхняя 
[Ci]
+15.5 -9 18 +15  1019  -0.9  725  277           
15 06.04.10 090 (В) >10 км    6/0 верхняя 
[Ci]
+12.6 -7.4 24 +12  1017.8  -1.7  723  279           
18 06.04.10 080 (В) >10 км    4/0 верхняя 
[Ci fib]
+8.3 -3.6 43 +6  1018.2  -0.3  723  283    +16       
21 06.04.10 090 (В) >10 км    3/0 верхняя 
[Ci fib]
+5.5 -2.9 55 +3  1018.2  -0.6  723  286           
00 07.04.10 090 (В) >10 км    3/0 верхняя 
[Ci fib]
+4.8 -2.5 59 +3  1016.8  -1.4  722  286           
03 07.04.10 100 (В) >10 км    8/0 верхняя 
[Ci fib]
+4 -2.9 61 +2  1017.3  0.2  722  287           
06 07.04.10 100 (В) >10 км    5/0 верхняя 
[Ci fib]
+9.2 -1.2 48 +7  1015.8  -0.3  722  281  +3.7         
09 07.04.10 100 (В) >10 км    5/1 1000 м верхняя 
[Cu med, cong|Ci fib]
+13.8 -2.7 32 +13  1014.5  -0.5  721  277           
12 07.04.10 090 (В) 12  >10 км    3/0 верхняя 
[Ci fib]
+14.8 -0.5 35 +13  1012.8  -1.4  720  275           
15 07.04.10 100 (В) 10  >10 км    3/0 верхняя 
[Ci fib]
+12 -1.2 40 +10  1012.5  -0.8  720  278           
18 07.04.10 090 (В) >10 км    3/0 верхняя 
[Ci fib]
+8.1 +0.9 60 +6  1012.8  -0.3  719  281    +15.1       
21 07.04.10 100 (В) 11  >10 км    10/6 420 м кучево-дожд., средняя 
[Cb calv|Ac und]
+4.6 +2.4 86 +1  1012.4  -1.1  719  284           
00 08.04.10 110 (В) >10 км    10/8 400 м кучево-дожд., средняя 
[Cb calv|Ac und]
+3.9 +1.6 85 1012.9  0.3  719  285           
03 08.04.10 100 (В) 4000 м    10/8 210 м кучево-дожд., средняя 
[Cb calv|Ac und]
+3.4 +2.4 93 +1  1012.1  -0.9  718  285           
06 08.04.10 090 (В) 2000 м  слаб. морось  10/10 60 м 
[St]
+4.1 +3.4 95 +1  1014  720  285  +3.2         
09 08.04.10 100 (В) 2000 м  морось  10/10 60 м 
[St]
+5.4 +4.9 97 +3  1014.4  0.7  720  284           
12 08.04.10 100 (В) >10 км  в посл. час дождь{морось}  10/10 150 м 
[Frnb]
+7 +5 87 +6  1014.7  0.5  721  282           
15 08.04.10 010 (С) >10 км    9/5 300 м средняя, верхняя 
[Sc|Ac As|Ci sp]
+9 +6.4 84 +8  1014.8  0.5  721  280           
18 08.04.10 330 (СЗ) >10 км    8/4 300 м средняя 
[Sc|Ac trans]
+6.9 +6.2 95 +6  1016.1  0.9  722  282    +10.5  0.3     
21 08.04.10 110 (В) >10 км    6/3 600 м верхняя 
[Sc|Ci sp]
+6.2 +4.8 91 +6  1015.8  -0.5  721  283           
00 09.04.10 060 (СВ) 2000 м  дымка  4/0 средняя, верхняя 
[Ac trans|Ci fib]
+4.4 +3.9 97 +5  1016.7  0.5  722  285           
03 09.04.10 090 (В) 2000 м  дымка  10/10 150 м 
[St]
+4.7 +4.2 96 +4  1017.3  0.6  722  285           
06 09.04.10 120 (ЮВ) 4000 м  дымка  10/10 120 м 
[St]
+5.9 +4.5 91 +5  1018.3  1.2  723  284  +4.2         
09 09.04.10 040 (СВ) >10 км    10/6 400 м кучево-дожд., средняя 
[Cb calv|Ac und]
+8.2 +4.6 78 +8  1018.3  0.5  723  282           
12 09.04.10 070 (В) >10 км    10/8 360 м кучево-дожд., средняя 
[Cb calv|Ac und]
+8 +4.1 76 +6  1020.8  2.3  725  283           
15 09.04.10 140 (ЮВ) 96  4900 м  дымка  8/8 400 м кучево-дожд., средняя 
[Cb calv|Ac und]
+6.1 +4.7 91 -3  1019  -2.1  723  284           
18 09.04.10 060 (СВ) 4000 м  слаб. ливневой дождь  10/8 100 м кучево-дожд., средняя 
[Cb cap|Ac und]
+5.5 +4.3 92 +4  1019.5  -0.4  724  285           
21 09.04.10 340 (С) 10 км  {ливн. осадки}  8/4 300 м кучево-дожд., средняя 
[Cb calv|Ac trans]
+4.8 +3.8 93 +6  1018.7  -0.9  723  286           
00 10.04.10 330 (СЗ) 4000 м  дымка{ливн. осадки, туман}  10/10 180 м 
[St]
+3.4 +2.4 93 +1  1018.6  -0.4  723  287           
03 10.04.10 310 (СЗ) 1200 м  дымка  10/10 60 м 
[St]
+3 +2 93 +1  1018.4  -0.3  723  288           
06 10.04.10 320 (СЗ) >10 км    8/3 330 м кучево-дожд., средняя 
[Cb calv|Ac trans]
+5.6 +2.4 80 +4  1017.5  -0.3  722  285  +2.6    0.4     
09 10.04.10 290 (З) >10 км    10/5 660 м кучево-дожд., средняя 
[Cb calv|Ac und]
+8.9 +1.3 59 +7  1016.2  -0.7  722  281           
12 10.04.10 310 (СЗ) >10 км    9/5 1000 м кучево-дожд., средняя 
[Cb calv|Ac trans]
+10.3 +0.9 52 +9  1014.9  -0.9  721  280           
15 10.04.10 300 (СЗ) >10 км    6/3 1000 м кучево-дожд., средняя 
[Cb calv|Ac trans]
+10.3 +0.9 52 +9  1014.5  -0.4  721  280           
18 10.04.10 280 (З) >10 км    5/0 средняя 
[Ac trans]
+8.1 +1.3 62 +7  1015.2  0.3  721  282    +11       
21 10.04.10 290 (З) >10 км    4/0 средняя 
[Ac trans]
+6.4 +2.8 78 +5  1015  -0.5  721  283           
00 11.04.10 300 (СЗ) >10 км    4/0 средняя 
[Ac trans]
+5.8 +3.4 85 +3  1014.8  -0.3  720  284           
03 11.04.10 290 (З) >10 км    5/3 1000 м средняя 
[Sc|Ac trans]
+5.4 +1.9 78 +3  1015.1  0.2  721  284           
06 11.04.10 300 (СЗ) >10 км    8/6 600 м кучево-дожд., средняя 
[Cb calv|Ac trans]
+10.2 +0.4 51 +9  1015  0.8  721  280  +5.3         
09 11.04.10 290 (З) >10 км    6/5 600 м кучево-дожд., средняя 
[Cb calv|Ac trans]
+11.8 +2.1 51 +11  1014.9  0.2  721  278           
12 11.04.10 340 (С) >10 км  {ливн. осадки}  6/6 600 м кучево-дожд., средняя 
[Cb calv|Ac trans]
+11.8 +0.9 47 +11  1014.4  -0.5  721  278           
15 11.04.10 010 (С) >10 км    6/4 600 м средняя 
[Cu med, cong|Ac trans]
+9.8 +2.3 60 +9  1015.3  0.5  721  280           
18 11.04.10 070 (В) >10 км    3/0 верхняя 
[Ci fib]
+4.4 +1.9 84 +4  1017.5  722  286    +12.7  0.0     
21 11.04.10 080 (В) 4000 м  дымка  10/6 120 м средняя 
[St|Ac und]
+4 +3 93 +3  1016.9  -0.5  722  286           
00 12.04.10 110 (В) 2000 м  дымка{туман}  8/8 210 м 
[St]
+4 +3 93 +3  1016.1  -0.8  721  286           
03 12.04.10 110 (В) >10 км    10/10 120 м 
[St]
+3.8 +2.8 93 +2  1014.9  -1.2  720  286           
06 12.04.10 110 (В) 10 км    10/10 180 м 
[St]
+4.9 +2.7 86 +2  1014.8  0.1  720  285  +3.5         
09 12.04.10 080 (В) >10 км    10/8 270 м средняя 
[St|Ac und]
+5.9 +3 82 +4  1014  -0.6  720  283           
12 12.04.10 070 (В) >10 км    10/8 400 м кучево-дожд., средняя 
[Cb calv|Ac und]
+6.7 +2.6 75 +4  1012.9  -0.8  719  282           
15 12.04.10 090 (В) >10 км    10/8 420 м кучево-дожд., средняя 
[Cb calv|Ac und]
+6.9 +2.6 74 +5  1013.2  0.3  719  282           
18 12.04.10 080 (В) 10 км  слаб. ливневой дождь  10/8 210 м кучево-дожд., средняя 
[Cb cap|Ac und]
+5.7 +4.5 92 +3  1013.8  0.3  720  283    +7.8       
21 12.04.10 070 (В) 10 км  слаб. ливневой дождь  10/8 180 м кучево-дожд., средняя 
[Cb cap|Ac und]
+5.2 +4.3 94 +3  1013.2  -0.7  719  284           
00 13.04.10 090 (В) 10 км  слаб. ливневой дождь  10/8 100 м кучево-дожд., средняя 
[Cb cap|Ac und]
+5.7 +5 95 +4  1013  719  283           
03 13.04.10 100 (В) 3000 м  слаб. ливневой дождь  10/8 150 м кучево-дожд., средняя 
[Cb cap|Ac und]
+5.3 +4.4 94 +4  1013.9  0.7  720  284           
06 13.04.10 090 (В) 4000 м  слаб. ливневой дождь  10/8 100 м кучево-дожд., средняя 
[Cb cap|Ac und]
+6 +4.9 93 +5  1015.1  1.4  721  283  +5.2       
09 13.04.10 120 (ЮВ) 10 км  слаб. ливневой дождь  10/8 420 м кучево-дожд., средняя 
[Cb cap|Ac und]
+7.2 +5.1 87 +6  1016  0.9  721  282           
12 13.04.10 140 (ЮВ) 10 км  слаб. ливневой дождь  10/8 450 м кучево-дожд., средняя 
[Cb cap|Ac und]
+7.9 +5.9 87 +7  1015.6  -0.1  721  281           
15 13.04.10 260 (З) 10 км  слаб. ливневой дождь  10/8 330 м кучево-дожд., средняя 
[Cb cap|Ac und]
+7.8 +5.8 87 +8  1016.2  0.6  722  282           
18 13.04.10 280 (З) >10 км  {ливн. осадки}  10/6 840 м кучево-дожд., средняя 
[Cb calv|Ac und]
+7.2 +5 86 +5  1017.5  723  283    +8.1     
21 13.04.10 280 (З) >10 км  в посл. час ливневой дождь  10/8 360 м кучево-дожд., средняя 
[Cb calv|Ac und]
+6 +3.9 86 +4  1017.9  0.2  723  284           
00 14.04.10 280 (З) >10 км  {ливн. осадки}  10/8 330 м кучево-дожд., средняя 
[Cb calv|Ac und]
+5.6 +4.2 91 +3  1018  723  285           
03 14.04.10 290 (З) >10 км    10/6 450 м кучево-дожд., средняя 
[Cb calv|Ac und]
+4.9 +3 87 +2  1018  -0.2  723  285           
06 14.04.10 280 (З) >10 км    5/3 300 м кучево-дожд., средняя 
[Cb calv|Ac trans]
+6.4 +2 73 +5  1018.9  1.1  723  284  +4.7    0.3     
09 14.04.10 290 (З) >10 км    8/8 600 м кучево-дожд. 
[Cb calv]
+8.4 +2.1 64 +7  1018.6  0.1  723  282           
12 14.04.10 340 (С) >10 км    8/6 800 м кучево-дожд., средняя 
[Cb calv|Ac trans]
+9.3 +2.5 62 +8  1018.5  0.1  724  281           
15 14.04.10 310 (СЗ) >10 км    4/3 1000 м кучево-дожд., средняя 
[Cb calv|Ac trans]
+9.1 +1.7 60 +8  1018.6  0.1  724  282           
18 14.04.10 260 (З) >10 км    3/0 средняя 
[Ac trans]
+4.7 +2.7 87 +4  1020.7  1.2  725  287    +10.4       
21 14.04.10 280 (З) >10 км    3/0 средняя 
[Ac trans]
+4.8 +1.8 81 +4  1021  0.3  725  287           
00 15.04.10 260 (З) >10 км    3/0 средняя 
[Ac trans]
+3.6 +2.8 95 +2  1021.3  725  288           
03 15.04.10 250 (З) >10 км    4/0 средняя, верхняя 
[Ac trans|Ci fib]
+3.1 +2.1 93 +4  1020.9  -0.1  724  288           
06 15.04.10 110 (В) >10 км    8/3 300 м верхняя 
[Cu hum|Ci]
+9.3 +3.2 66 +9  1020.5  0.7  725  282  +2.5         
09 15.04.10 110 (В) >10 км    9/6 600 м кучево-дожд., верхняя 
[Cb calv|Ci]
+12 +3.4 56 +12  1019.3  -0.6  725  279           
12 15.04.10 030 (СВ) >10 км    10/5 600 м кучево-дожд., верхняя 
[Cb calv|Ci]
+13.6 +0.2 40 +15  1019.2  0.1  725  278           
15 15.04.10 280 (З) >10 км  слаб. ливневой дождь  10/8 800 м кучево-дожд., средняя 
[Cb cap|Ac und]
+12.1 +1.3 48 +12  1019.8  0.4  725  279           
18 15.04.10 290 (З) >10 км  слаб. ливневой дождь  10/6 1000 м кучево-дожд., средняя 
[Cb cap|Ac und]
+8.5 +5.5 81 +8  1021.3  0.8  725  283    +14.6  0.0     
21 15.04.10 350 (С) >10 км  слаб. ливневой дождь  10/5 600 м кучево-дожд., средняя 
[Cb cap|Ac und]
+8 +5.6 85 +8  1021  -0.4  725  283           
00 16.04.10 180 (Ю) >10 км  {ливн. осадки}  10/5 1000 м кучево-дожд., средняя 
[Cb cap|Ac und]
+7.3 +5 85 +7  1021.2  0.1  725  284           
03 16.04.10 170 (Ю) >10 км    8/6 1000 м средняя 
[Sc|Ac trans]
+7.2 +4.6 84 +7  1021.2  -0.1  725  284           
06 16.04.10 140 (ЮВ) >10 км    4/0 
+11.5 +5.5 67 +10  1021  -0.6  726  280  +7.1    0.6     
09 16.04.10 110 (В) >10 км    9/0 верхняя 
[Ci fib]
+16.7 +2.9 40 +16  1019.5  -0.5  725  275           
12 16.04.10 140 (ЮВ) >10 км    9/1 600 м верхняя 
[Cu hum|Ci fib]
+18.5 +1.7 32 +19  1017.8  -1.3  724  273           
15 16.04.10 120 (ЮВ) >10 км    9/0 верхняя 
[Ci fib]
+16.3 +4.5 45 +16  1017.3  -0.9  724  274           
18 16.04.10 130 (ЮВ) >10 км    4/0 верхняя 
[Ci fib]
+11.4 +4.3 62 +10  1017.8  -0.3  723  279    +19.3       
21 16.04.10 140 (ЮВ) >10 км    4/0 верхняя 
[Ci fib]
+10.3 +4.8 69 +9  1017.8  -0.1  723  280           
00 17.04.10 170 (Ю) >10 км    3/0 верхняя 
[Ci fib]
+8.8 +5.8 81 +7  1017  -1.1  722  281           
03 17.04.10 180 (Ю) >10 км    3/0 верхняя 
[Ci fib]
+9.2 +5.6 78 +8  1016.2  -0.8  722  280           
06 17.04.10 160 (Ю) >10 км    10/3 1000 м кучево-дожд., средняя 
[Cb calv|Ac und]
+14.2 +7.6 64 +14  1015.2  0.1  722  275           
09 17.04.10 010 (С) >10 км    8/0 средняя 
[Ac trans]
+19.3 +9.3 52 +21  1014.7  0.4  722  270           
12 17.04.10 060 (СВ) >10 км    6/0 верхняя 
[Ci fib]
+21.5 +5.5 35 +22  1013.5  -0.8  722  269           
15 17.04.10 010 (С) >10 км    6/0 средняя 
[Ac trans]
+20.7 +6.5 40 +21  1013.5  -0.1  722  269           
18 17.04.10 350 (С) >10 км    3/0 средняя 
[Ac trans]
+15.2 +8.1 63 +15  1013.7  -0.7  721  274    +22.1       
21 17.04.10 350 (С) >10 км    3/0 средняя 
[Ac trans]
+13.3 +7.4 67 +14  1014.4  0.2  721  276           
00 18.04.10 340 (С) >10 км    3/0 средняя 
[Ac trans]
+10.7 +7.8 82 +10  1013.7  -1.1  720  278           
03 18.04.10 340 (С) 4000 м  дымка  6/3 200 м средняя 
[St|Ac trans]
+8.2 +7.1 93 +6  1016.3  722  281           
06 18.04.10 330 (СЗ) >10 км    10/8 330 м средняя 
[Sc|Ac und]
+9.4 +7.3 87 +8  1018.3  2.1  723  281  +8.1         
09 18.04.10 320 (СЗ) 10 км    10/8 330 м кучево-дожд., средняя 
[Cb cap|Ac und]
+10.1 +7.4 83 +9  1019.8  1.6  725  280           
12 18.04.10 280 (З) 10 км  в посл. час ливневой дождь  10/8 420 м кучево-дожд., средняя 
[Cb cap|Ac und]
+10.9 +7.8 81 +10  1020.4  0.7  725  280           
15 18.04.10 300 (СЗ) >10 км    8/6 500 м кучево-дожд., средняя 
[Cb calv|Ac trans]
+11 +6.5 74 +10  1020.9  0.5  726  280           
18 18.04.10 320 (СЗ) >10 км    4/3 1000 м средняя 
[Sc diur, vesp|Ac trans]
+8.8   1024  2.4  727      +11.2  0.0     
21 18.04.10 270 (З) >10 км    4/0 средняя 
[Ac trans]
+5.7 -1 62 +5  1025.9  1.3  728  288           
00 19.04.10 290 (З) >10 км    ясно 
+5.3 -1.5 61 +4  1025.8  -0.2  728  288           
03 19.04.10 300 (СЗ) >10 км    3/0 верхняя 
[Ci fib]
+3.8 -1.1 70 +3  1026.2  0.1  728  289           
06 19.04.10 110 (В) >10 км    ясно 
+11 -1.4 42 +11  1025.1  0.3  728  282  +3.6         
09 19.04.10 120 (ЮВ) >10 км    3/3 600 м средняя 
[Cu hum|Ac trans]
+12.8 -0.7 39 +12  1024.6  -0.2  728  280           
12 19.04.10 120 (ЮВ) >10 км    3/0 средняя 
[Ac trans]
+15.6 +0.4 36 +15  1022.3  -1.7  727  277           
15 19.04.10 110 (В) >10 км    3/0 средняя 
[Ac trans]
+14.6 +0.2 37 +14  1021.4  -1  726  278           
18 19.04.10 110 (В) >10 км    ясно 
+7.4 +1.7 67 +6  1021.8  -0.9  726  284    +16.6       
21 19.04.10 120 (ЮВ) >10 км    ясно 
+5.8 +1.8 75 +4  1017.8  -0.7  725  286           
00 20.04.10 120 (ЮВ) >10 км    ясно 
+5.4 +1.9 78 +3  1020  -1.4  724  286           
03 20.04.10 140 (ЮВ) >10 км    3/0 средняя 
[Ac trans]
+5 +2 81 +3  1020.1  724  286           
06 20.04.10 110 (В) 10  >10 км    1/0 верхняя 
[Ci fib]
+13.7 +1.5 43 +12  1016.4  -1.9  723  277  +4         
09 20.04.10 110 (В) 10  >10 км    1/0 верхняя 
[Ci fib]
+17.3 +0 31 +17  1014  -1.6  721  273           
12 20.04.10 010 (С) 94  1000 м    1/0 100 м верхняя 
[Ci fib]
-1.4   1011.9  -1.6  720             
15 20.04.10 120 (ЮВ) >10 км    1/0 верхняя 
[Ci fib]
+17.4 +0.9 33 +17  1010.7  -1.5  719  272           
18 20.04.10 110 (В) >10 км    3/0 верхняя 
[Ci fib]
+11.7 +3 55 +11  1011.2  -0.5  719  277    +20       
21 20.04.10 130 (ЮВ) >10 км    ясно 
+8.8 +1.5 60 +6  1009.8  -1.9  717  280           
00 21.04.10 130 (ЮВ) >10 км    ясно 
+6.4 +1.3 70 +4  1009.2  -1  717  282           
03 21.04.10 170 (Ю) >10 км    9/3 1000 м средняя 
[Sc|Ac trans]
+6.2 +2.6 78 +5  1008.5  -0.7  716  282           
06 21.04.10 140 (ЮВ) >10 км    9/3 1000 м средняя 
[Sc|Ac trans]
+9.8 +4.1 68 +9  1006.9  -0.9  715  278  +5.3         
09 21.04.10 120 (ЮВ) >10 км    10/4 1000 м средняя 
[Sc|Ac trans]
+15.3 +6.5 56 +15  1004.8  -0.9  715  272           
12 21.04.10 120 (ЮВ) >10 км    9/3 1000 м средняя, верхняя 
[Sc|Ac trans|Ci fib]
+18.6 +7.4 48 +19  1002.8  -1.4  714  268           
15 21.04.10 130 (ЮВ) >10 км    9/4 1000 м средняя 
[Sc|Ac trans]
+18.6 +8.6 52 +19  1001.5  -1.1  713  267           
18 21.04.10 150 (ЮВ) >10 км    9/4 1000 м средняя 
[Sc|Ac trans]
+14.2 +6.5 60 +14  1002.8  0.4  713  272    +19.9       
21 21.04.10 290 (З) >10 км    10/5 1000 м средняя 
[Sc|Ac und]
+12.7 +9.8 82 +13  1004.6  1.5  714  273           
00 22.04.10 280 (З) >10 км  в посл. час ливневой дождь  10/6 330 м кучево-дожд., средняя 
[Cb calv|Ac und]
+11.4 +10.3 93 +13  1004.7  -0.1  714  274           
03 22.04.10 300 (СЗ) 10 км    10/8 180 м кучево-дожд., средняя 
[Cb calv|Ac und]
+11.1 +9.9 92 +12  1006  1.2  715  275           
06 22.04.10 290 (З) >10 км    8/6 300 м кучево-дожд., средняя 
[Cb calv|Ac trans]
+13.1 +9.4 78 +14  1007.2  1.4  716  274  +10.9       
09 22.04.10 290 (З) >10 км    8/6 600 м кучево-дожд., средняя 
[Cb calv|Ac trans]
+15.9 +8.9 63 +17  1007.8  717  271           
12 22.04.10 320 (СЗ) >10 км  в посл. час ливневой дождь  10/6 180 м кучево-дожд., средняя 
[Cb calv|Ac und]
+13.1 +9.8 80 +14  1010.1  1.8  718  274           
15 22.04.10 290 (З) >10 км    8/4 300 м кучево-дожд., средняя 
[Cb calv|Ac trans]
+12.9 +9.5 80 +13  1011  0.8  719  275           
18 22.04.10 300 (СЗ) >10 км    9/3 600 м кучево-дожд., средняя 
[Cb calv|Ac trans]
+11 +7.7 80 +10  1013.3  1.8  720  278    +16.7  0.3     
21 22.04.10 270 (З) >10 км    10/3 1000 м средняя 
[Sc diur, vesp|Ac und]
+10 +5.9 76 +9  1015.5  1.9  722  279           
00 23.04.10 290 (З) >10 км    9/3 600 м средняя 
[Sc diur, vesp|Ac trans]
+9.6 +5.6 76 +7  1015.5  722  280           
03 23.04.10 270 (З) >10 км    10/3 1500 м средняя 
[Sc|Ac und]
+9.1 +4.6 73 +8  1018.5  2.6  724  281           
06 23.04.10 300 (СЗ) >10 км    9/5 1000 м верхняя 
[Sc|Ci]
+10.8 +4.8 66 +10  1020.9  2.7  726  280  +9         
09 23.04.10 290 (З) >10 км    9/0 средняя, верхняя 
[Ac trans|Ci]
+14.3 +5.5 55 +14  1021.9  1.4  727  277           
12 23.04.10 250 (З) >10 км    9/3 600 м кучево-дожд., верхняя 
[Cb calv|Ci fib]
+15.4 +5.3 51 +16  1022.1  0.5  727  276           
15 23.04.10 270 (З) >10 км    9/0 средняя, верхняя 
[Ac trans|Ci fib]
+14.3 +3.6 49 +15  1022.5  0.1  727  278           
18 23.04.10 360 (С) >10 км    10/0 средняя 
[Ac trans]
+11.5 +5.9 68 +12  1024.8  1.8  728  281    +15.7       
21 23.04.10 010 (С) >10 км    8/0 средняя 
[Ac trans]
+10.1 +5.5 73 +10  1025.2  0.1  728  282           
00 24.04.10 010 (С) >10 км    10/4 600 м средняя 
[Sc|Ac und]
+8.3 +5.5 83 +8  1026.6  729  284           
03 24.04.10 020 (С) >10 км    10/4 600 м средняя 
[Sc|Ac und]
+7.7 +0 58 +7  1027.5  0.7  730  286           
06 24.04.10 080 (В) >10 км    10/1 600 м средняя 
[Sc|Ac und]
+10.9 +4.6 65 +10  1026.6  -0.2  730  282  +7.5         
09 24.04.10 110 (В) >10 км    10/5 630 м средняя 
[Sc|Ac und]
+12.7 +6.4 65 +12  1026.7  0.4  730  280           
12 24.04.10 100 (В) >10 км    8/5 600 м средняя 
[Sc|Ac trans]
+13.6 +6.1 60 +13  1025.2  -1.3  729  279           
15 24.04.10 140 (ЮВ) >10 км    6/4 600 м средняя 
[Sc|Ac trans]
+11.5 +6.4 71 +10  1025.6  729  281           
18 24.04.10 130 (ЮВ) >10 км    3/0 средняя 
[Ac trans]
+7.7 +4.5 80 +6  1026.7  0.3  729  285    +14.8       
21 24.04.10 130 (ЮВ) >10 км    ясно 
+5.1 +2.9 86 +3  1026.3  -0.8  729  288           
00 25.04.10 080 (В) >10 км    1/0 верхняя 
[Ci fib]
+3.1 +1.3 88 +2  1025.8  -0.9  728  290           
03 25.04.10 110 (В) >10 км    3/0 верхняя 
[Ci fib]
+3.2 +0.6 83 +2  1025.8  728  290           
06 25.04.10 110 (В) >10 км    5/0 верхняя 
[Ci fib]
+10.5 +1.7 54 +9  1023.8  -0.5  728  282  +2.7         
09 25.04.10 100 (В) >10 км    3/0 верхняя 
[Ci fib]
+14.3 +0 38 +14  1022.3  -0.8  727  278           
12 25.04.10 090 (В) >10 км    3/0 средняя 
[Ac trans]
+16.4 +0.9 35 +16  1020.6  -1.2  726  276           
15 25.04.10 010 (С) >10 км    3/0 средняя 
[Ac trans]
+15.2 +0.9 38 +15  1020.6  -0.2  726  277           
18 25.04.10 040 (СВ) >10 км    8/0 средняя 
[Ac trans]
+10.8 -1.4 43 +10  1022  0.5  726  282    +16.8       
21 25.04.10 030 (СВ) >10 км    6/0 средняя 
[Ac trans]
+9.3 -1.9 45 +9  1021.7  -0.6  726  283           
00 26.04.10 190 (Ю) >10 км    6/0 средняя 
[Ac trans]
+7.3 -0.5 58 +7  1021.4  -0.6  725  285           
03 26.04.10 310 (СЗ) >10 км    8/0 средняя 
[Ac trans]
+9.7 -2.5 42 +9  1021.1  0.1  725  282           
06 26.04.10 020 (С) >10 км    5/0 средняя 
[Ac trans]
+11.2 +4.1 62 +10  1022.5  1.7  727  281  +6.8         
09 26.04.10 360 (С) >10 км    8/8 600 м 
[Cu med, cong]
+12.6 +5.3 61 +12  1022.6  0.4  727  279           
12 26.04.10 350 (С) >10 км    8/5 600 м кучево-дожд., средняя 
[Cb calv|Ac trans]
+13.2 +2.9 50 +13  1023  0.4  727  279           
15 26.04.10 360 (С) >10 км    8/5 1000 м средняя 
[Sc diur, vesp|Ac trans]
+11.9 -1.4 40 +11  1023.4  0.1  727  281           
18 26.04.10 010 (С) >10 км    9/0 средняя 
[Ac trans]
+7.7 -4.1 43 +6  1025.5  1.2  728  286    +17.3       
21 26.04.10 010 (С) >10 км    10/4 1500 м кучево-дожд., средняя 
[Cb calv|Ac und]
+7.1 -3.6 46 +6  1025.8  0.3  728  286           
00 27.04.10 010 (С) >10 км    9/0 средняя 
[Ac trans]
+5.6 -2.5 56 +5  1026.8  0.5  729  288           
03 27.04.10 тихо ()   >10 км    6/0 средняя 
[Ac trans]
+3.8 -3.9 57 +4  1027.6  0.4  729  290           
06 27.04.10 070 (В) >10 км    3/1 600 м средняя 
[Cu hum|Ac trans]
+9.1 -8.6 28 +9  1027.3  0.8  730  285  +3.1         
09 27.04.10 030 (СВ) >10 км    4/4 600 м 
[Cu hum]
+11.4 -8.6 24 +11  1026.6  -0.5  729  283           
12 27.04.10 020 (С) >10 км    3/3 600 м 
[Cu hum]
+11.8 -9 22 +13  1025.9  -0.4  729  282           
15 27.04.10 010 (С) >10 км    1/0 средняя 
[Ac trans]
+10.6 -9.8 23 +10  1026  -0.1  729  284           
18 27.04.10 030 (СВ) >10 км    ясно 
+6 -7 39 +5  1028  1.1  730  288    +12.3       
21 27.04.10 060 (СВ) >10 км    ясно 
+1.6 -5.8 58 -1  1029.9  0.9  731  293           
00 28.04.10 170 (Ю) >10 км    ясно 
+0.8 -6.9 56 -1  1029.3  -0.8  730  294           
03 28.04.10 180 (Ю) >10 км    ясно 
+0.8 -7.8 53 -2  1029.2  -0.1  730  294           
06 28.04.10 120 (ЮВ) >10 км    ясно 
+9 -8.2 29 +8  1027  -0.4  730  285  +0.4         
09 28.04.10 120 (ЮВ) >10 км    ясно 
+13 -5 28 +12  1024.7  -1.4  728  281           
12 28.04.10 130 (ЮВ) 10  >10 км    ясно 
+14.4 -4.4 27 +13  1022.3  -2.1  727  279           
15 28.04.10 120 (ЮВ) >10 км    ясно 
+12.8 -3.3 32 +12  1021  -1.5  726  280           
18 28.04.10 110 (В) >10 км    1/0 верхняя 
[Ci fib]
+6.6 -1.8 55 +5  1022.2  726  286    +15.1       
21 28.04.10 130 (ЮВ) >10 км    ясно 
+4.9 -3.8 53 +2  1021.3  -1.2  725  287           
00 29.04.10 120 (ЮВ) >10 км    ясно 
+2.3 -2.3 72 1021.2  -0.5  725  290           
03 29.04.10 130 (ЮВ) >10 км    ясно 
+4.1 -6.2 47 +2  1019.9  -1  724  288           
06 29.04.10 120 (ЮВ) >10 км    ясно 
+11.8 -5.7 29 +11  1018  -0.4  723  280  +1.3         
09 29.04.10 130 (ЮВ) >10 км    ясно 
+14.8 -1.9 32 +14  1016.6  -0.7  723  276           
12 29.04.10 060 (СВ) >10 км    ясно 
+17.3 +0 31 +18  1015.5  -0.6  722  274           
15 29.04.10 110 (В) >10 км    ясно 
+16.2 +0.9 35 +16  1015.2  -0.6  722  274           
18 29.04.10 130 (ЮВ) >10 км    ясно 
+9.4 +3 64 +8  1017  0.6  723  281    +17.5       
21 29.04.10 160 (Ю) >10 км    ясно 
+8 +1.1 62 +7  1017.4  0.1  723  283           
00 30.04.10 140 (ЮВ) >10 км    ясно 
+4.5 +0 73 +3  1018.1  -0.1  723  286           
03 30.04.10 170 (Ю) >10 км    3/0 верхняя 
[Ci fib]
+6.1 +0.8 69 +5  1018  0.2  723  285           
06 30.04.10 100 (В) >10 км    6/0 верхняя 
[Ci fib]
+14.2 +1.3 41 +15  1016.9  0.5  723  277  +4.3         
09 30.04.10 040 (СВ) >10 км    4/3 600 м верхняя 
[Cu hum|Ci fib]
+16.3 +0.6 34 +17  1015.8  -0.7  723  275           
12 30.04.10 030 (СВ) >10 км    3/0 верхняя 
[Ci fib]
+18.2 +0.4 30 +19  1015.3  -0.1  722  273           
15 30.04.10 090 (В) >10 км    3/0 средняя 
[Ac trans]
+16.8 +0.9 34 +18  1015.5  -0.1  722  274           
18 30.04.10 100 (В) >10 км    ясно 
+10.4 +2.1 56 +10  1017.5  0.8  723  280    +18.4       
21 30.04.10 100 (В) >10 км    ясно 
+8 +2.5 68 +7  1018.1  0.2  723  283           
00 01.05.10 130 (ЮВ) >10 км    ясно 
+5.7 +3 83 +4  1018.4  -0.2  723  285           
03 01.05.10 150 (ЮВ) >10 км    3/0 верхняя 
[Ci fib]
+5.8 +2.9 82 +4  1018.6  0.3  723  285           
06 01.05.10 140 (ЮВ) >10 км    ясно 
+11 +3.6 60 +10  1017.9  0.2  723  280  +4.4         
09 01.05.10 110 (В) >10 км    ясно 
+15.4 +4.3 47 +15  1017.1  723  275           
12 01.05.10 130 (ЮВ) >10 км    ясно 
+17.5 +3 38 +17  1016.2  -0.4  723  273           
15 01.05.10 110 (В) >10 км    ясно 
+15.7 +2.9 42 +15  1016.7  0.1  723  275           
18 01.05.10 110 (В) >10 км    ясно 
+10.1 +2.9 61 +9  1018.7  0.9  724  281    +18.2       
21 01.05.10 110 (В) >10 км    ясно 
+7.3 +1.9 68 +6  1019.3  724  284           
00 02.05.10 130 (ЮВ) >10 км    ясно 
+4.6 +2.1 84 +3  1020.2  0.4  724  287           
03 02.05.10 120 (ЮВ) 2000 м  дымка  10/10 100 м 
[St]
+5.2 +4.7 97 +3  1020.1  724  286           
Время (UTC), дата Ветер
(°,м/с) 
Видим.   Явления Облачность Т
(°С)
Тd
(°С)
f(%) Тe
(°С)
Pmin
(гПа)
dP
(гПа)
Po
(мм)
O2
(г/м3)
Тmin Tmax R s Состояние
почвы